Regional Weather Roundup
Issued by NWS Pendleton, OR

Home | Current Version | Previous Version | Text Only | Print | Product List | Glossary On
Versions: 1 2 3 4 5 6 7 8 9 10 11 12 13 14 15 16 17 18 19 20 21 22 23 24 25 26 27 28 29 30 31 32 33 34 35 36 37 38 39 40 41 42 43 44 45 46 47 48 49 50
000
ASUS46 KPDT 290404
RWRPDT
PENDLETON REGIONAL WEATHER ROUNDUP
NATIONAL WEATHER SERVICE PENDLETON OREGON
900 PM PDT SUN AUG 28 2016

NOTE: FAIR INDICATES FEW OR NO CLOUDS BELOW 12,000 FEET WITH NO
SIGNIFICANT WEATHER AND/OR OBSTRUCTIONS TO VISIBILITY.

# INDICATES UNOFFICIAL STATION AND DATA

WAZ520-290510-
EAST SLOPES OF WASHINGTON CASCADES

CITY            SKY/WX      TMP DP  RH  WIND    PRES   REMARKS
#CLE ELUM HS    N/A         65  43  45  CALM    29.99S
#CLE ELUM 2NW   N/A         62  40  44  NW1     N/A
#GLENWOOD       N/A         67  52  59  CALM    29.96R
#MANASTASH CYN  N/A         61  42  50  CALM    30.07R
#NELSON 3SW     N/A         59  45  60  CALM    30.19R
#NILE           N/A         65  46  50  CALM    29.26R
#RONALD 2NW     N/A         65  N/A N/A N2      29.97R
#TEANAWAY 4NE   N/A         66  44  45  W1      N/A
#TROUT LAKE 1NE N/A         69  52  55  NW1     29.95R
$$

WAZ521-290510-
SIMCOE HIGHLANDS

CITY            SKY/WX      TMP DP  RH  WIND    PRES   REMARKS
#CENTERVILLE 1SWN/A         73  49  43  W6      29.90R
#GOLDENDALE 1NE N/A         74  28  18  CALM    N/A
#GOLDENDALE 4W  N/A         75  57  54  CALM    30.04R
#GOODNOE HILLS  N/A         80  41  25  N1      29.92R
#LYLE 6NE       N/A         74  48  40  SW3     29.92R
$$

WAZ026-290510-
KITTITAS VALLEY

CITY            SKY/WX      TMP DP  RH  WIND    PRES   REMARKS
ELLENSBURG AP   MOCLDY      68  44  42  MISG    30.04R
#ELLENSBURG CWU N/A         71  45  39  N1      29.91R
#ELLENSBURG 3NE N/A         68  47  47  CALM    30.03R
#ELLENSBURG     N/A         71  48  44  N1      N/A
#ELLENSBURG 1E  N/A         73  N/A N/A CALM    N/A
#KITTITAS 4N    N/A         67  43  42  N1      29.99R
#KITTITAS 3S    N/A         59  51  75  CALM    29.94R
#THORP 6N       N/A         68  41  37  N1      30.00S
$$

WAZ027-290510-
YAKIMA VALLEY

CITY            SKY/WX      TMP DP  RH  WIND    PRES   REMARKS
SUNNYSIDE AP    N/A         68  48  49  NE7     29.98R
YAKIMA AIRPORT  PTCLDY      70  50  49  S5      30.00R
YAKIMA-VAGABOND N/A         74  34  23  E8      29.99R
#DONALD 2NE     N/A         78   9   7  N2      28.84R
#GRANDVIEW      N/A         73  38  28  CALM    29.95R
#MABTON         N/A         72  52  49  CALM    29.96R
#NACHES 2SW     N/A         72  54  53  CALM    30.02S
#TERRACE HTS    N/A         75  42  31  CALM    29.91R
#TOPPENISH      N/A         77  53  43  CALM    29.86R
#WEST VALLEY    N/A         74  51  44  CALM    29.93R
#WHITE SWAN 5E  N/A         70  53  55  CALM    29.95R
#WILEY CITY 3W  N/A         66  43  43  CALM    29.98R
$$

WAZ028-290510-
LOWER COLUMBIA BASIN...WASHINGTON

CITY            SKY/WX      TMP DP  RH  WIND    PRES   REMARKS
PASCO           PTCLDY      70  52  53  N3      29.96S
PROSSER AWOS    N/A         70  48  46  CALM    30.01R
RICHLAND AWOS   PTCLDY      74  49  41  CALM    29.97R
#BENTON CITY    N/A         75  41  29  CALM    29.85R
#CONNELL 5N     N/A         72  36  27  N1      29.96S
#CONNELL 5NW    N/A         72  38  29  NE1     29.92R
#ELTOPIA 6NW    N/A         69  48  47  CALM    28.96R
#KAHLOTUS       N/A         74  35  24  SE10    29.95R
#KENNEWICK 3S   N/A         75  45  34  CALM    29.95R
#PATERSON       N/A         76  48  37  E8      29.91S
#SAGEMOOR 2W    N/A         70  49  47  N1      29.79S
#TOUCHET 2S     N/A         69  50  51  CALM    29.91R
#WEST PASCO     N/A         74  50  43  CALM    29.95R
$$

WAZ029-290510-
FOOTHILLS OF THE BLUES...WASHINGTON

CITY            SKY/WX      TMP DP  RH  WIND    PRES   REMARKS
WALLA WALLA AP  PTCLDY      73  44  35  E10     30.00R
#CLYDE 6NW      N/A         67  35  30  CALM    29.95R
#DAYTON SCHOOL  N/A         71  39  31  N1      30.03R
#LOWDEN 2SE     N/A         69  49  49  E1      29.92R
#PLEASANT VIEW 1N/A         77  36  23  CALM    29.99R
#PRESCOTT       N/A         66  46  48  CALM    29.93R
#WHITMAN COLLEGEN/A         79  46  31  NW3     29.98R
#WAITSBURG 8N   N/A         64  17  16  N1      29.97R
#WHITMAN MISSIONN/A         72  55  55  CALM    29.94R
$$

WAZ030-290510-
BLUE MOUNTAINS...WASHINGTON

CITY            SKY/WX      TMP DP  RH  WIND    PRES   REMARKS
#DIXIE 5SE      N/A         72  42  34  N2      30.03R
$$

ORZ009-041-WAZ024-290510-
COLUMBIA RIVER GORGE

CITY            SKY/WX      TMP DP  RH  WIND    PRES   REMARKS
HOOD RIVER AP   CLEAR       75  45  34  S3      29.98S
THE DALLES AP   CLEAR       81  44  27  W8      29.94R
#ARLINGTON AIRPON/A         79  43  28  E2      29.94R
#LYLE           N/A         80  47  31  NW7     29.95R
#MARYHILL 2W    N/A         N/A N/A N/A CALM    N/A
#MOSIER 1S      N/A         76  29  18  NW3     29.97S
#MURDOCK        N/A         82  46  28  W13     29.89R
#RUFUS DOT      N/A         86  48  27  W8      N/A
#SMITHVILLE     N/A         82  45  27  N10     29.91R

$$

ORZ510-290510-
NORTH CENTRAL OREGON

CITY            SKY/WX      TMP DP  RH  WIND    PRES   REMARKS
#ANTELOPE       N/A         74  50  43  E8      29.76R
#COW CYN RST AREN/A         74  N/A N/A N12     N/A
#DUFUR 9E       N/A         73  47  40  W5      30.00R
#GRASS VALLEY 1SN/A         72  48  43  N2      30.00R
#KENT DOT       N/A         71  44  38  N8      N/A
#MAUPIN SCHOOL  N/A         81  56  42  CALM    30.01R
#SHANIKO 5WSW   N/A         71  45  39  N14     N/A
#TYGH VALLEY 2NEN/A         79  51  38  CALM    29.92R
#WAPANITIA AIRPON/A         75  49  40  CALM    29.94R
#WASCO DOT      N/A         76  51  42  SW2     N/A
#WASCO 5NE      N/A         74  49  41  CALM    29.93R
$$

ORZ511-290510-
CENTRAL OREGON

CITY            SKY/WX      TMP DP  RH  WIND    PRES   REMARKS
BEND AIRPORT    PTCLDY      75  48  38  N8      30.09R
MADRAS AIRPORT  CLEAR       79  50  36  N8      30.06R
PRINEVILLE AP   PTCLDY      77  45  32  NW15    30.07R
REDMOND AIRPORT PTCLDY      76  44  32  N10     30.07R
#ASHWOOD SCHOOL N/A         76  47  36  N1      30.01R
#BEND 1SW       N/A         71  47  42  CALM    N/A
#BEND-AWBREY    N/A         74  49  41  N3      29.92R
#CULVER         N/A         74  50  43  N2      29.83R
#LAKE BILLY CHINN/A         78  N/A N/A N12     30.09R
#MADRAS 4S      N/A         75  23  14  NW6     30.13R
#POWELL BUTTE   N/A         73  47  40  NW2     29.96R
#PRINEVILLE 3N  N/A         75  49  40  N12     29.95R
#WARM SPRINGS   N/A         83  52  34  CALM    29.98R

$$


ORZ509-290510-
EAST SLOPES OF OREGON CASCADES

CITY            SKY/WX      TMP DP  RH  WIND    PRES   REMARKS
SISTERS AWOS    N/A         75  48  38  N6      30.06R
#BLUE BOX PASS  N/A         63  N/A N/A N12     N/A
#CAMP SHERMAN   N/A         71  47  42  CALM    30.03S
#LA PINE DOT    N/A         71  45  39  W2      N/A
#LA PINE 4NW    N/A         67  47  49  CALM    29.97R
#LAVA BUTTE DOT N/A         70  44  39  CALM    N/A
#SISTERS AIRPOR N/A         74  57  55  N5      30.17S
#SISTERS ODOT   N/A         75  N/A N/A W2      N/A
#SISTERS 3N     N/A         72  46  39  CALM    29.99R
#SUNRIVER       N/A         71  47  42  CALM    29.93R
#SUTTLE LK DOT  N/A         65  48  54  CALM    N/A
#TUMALO 3W      N/A         73  49  43  N7      29.78R
#WANOGA BUTTE D N/A         64  39  40  W2      N/A

$$

ORZ044-290510-
LOWER COLUMBIA BASIN...OREGON

CITY            SKY/WX      TMP DP  RH  WIND    PRES   REMARKS
HERMISTON       CLEAR       72  43  35  E6      29.96R
#BOARDMAN SCHOOLN/A         78  48  35  CALM    29.93R
#ECHO 8SW       N/A         74  44  34  CALM    29.97R
#I-84 EX 198 DOTN/A         78  48  35  NE10    N/A
#UMATILLA       N/A         79  43  28  CALM    29.86R
$$

ORZ507-290510-
NORTHERN FOOTHILLS OF THE BLUES

CITY            SKY/WX      TMP DP  RH  WIND    PRES   REMARKS
PENDLETON AIRPT CLEAR       74  35  24  NE10    30.00S
#ADAMS 3WNW     N/A         67  38  34  NE3     29.93R
#ATHENA         N/A         68  42  39  CALM    29.97R
#CAYUSE         N/A         75  44  33  E3      29.93R
#HELIX SCHOOL   N/A         71  39  31  CALM    29.95R
#HELIX 3N       N/A         68  35  29  CALM    30.00R
#HELIX 6SW      N/A         71  36  28  CALM    30.00S
#HOLDMAN 5SE    N/A         72  36  27  CALM    30.00R
#HOLDMAN 6E     N/A         72  34  25  SW5     29.76R
#M-F GROVE ELEM N/A         72  41  33  CALM    29.98R
#M-FREEWATER 5SEN/A         68  48  49  CALM    30.00R
#PDT AQUATIC CTRN/A         77  36  23  E3      30.02R
#PDT SUNRIDGE   N/A         74  41  30  CALM    30.00R
#PENDLETON 7NW  N/A         76  45  33  CALM    32.43S
#PILOT ROCK 1S  N/A         69  40  35  N2      30.03R
#PILOT ROCK     N/A         70  42  36  SW3     30.02R
#TUTUILLA       N/A         63  44  50  CALM    29.95R
#UMAPINE 2E     N/A         66  55  68  CALM    29.95R
#WESTON SCHOOL  N/A         72  36  27  CALM    29.89R

$$

ORZ508-290510-
SOUTHERN FOOTHILLS OF THE BLUES

CITY            SKY/WX      TMP DP  RH  WIND    PRES   REMARKS
LEXINGTON       CLEAR       75  39  27  SE6     30.04R
#AJAX           N/A         76  42  30  W5      27.79R
#CONDON SCHOOL  N/A         74  46  37  N5      30.02R
#CONDON 5W      N/A         70  43  38  N7      30.06S
#FOSSIL SCHOOL  N/A         77  43  30  NE6     30.01R
#HEPPNER EOC    N/A         75  42  31  E3      29.88R
#HEPPNER 4NE    N/A         71  44  38  E1      29.94R
#LEXINGTON 2SE  N/A         77  43  30  SE7     29.98R
#MIKKALO        N/A         75  44  33  NW3     30.13R
#OLEX 4N        N/A         78  43  29  NE3     29.96R
#RUGGS 5NE      N/A         71  40  32  E6      30.23F
#RUGGS 2SW      N/A         71  41  34  SW1     29.96R

$$

ORZ502-503-290510-
BLUE MOUNTAINS

CITY            SKY/WX      TMP DP  RH  WIND    PRES   REMARKS
MEACHAM         CLEAR       61  37  41  CALM    30.15R
#BATTLE MTN DOT N/A         66  39  37  N3      N/A
#CUTSFORTH PARK N/A         64  45  50  CALM    29.92R
#GREENHORN 9SW  N/A         68  42  39  CALM    26.26R
#HARDMAN 10S    N/A         67  41  39  CALM    30.05R
#HEPPNER 15SE   N/A         63  42  46  CALM    25.67R
#LADD CYN SMT   N/A         70  42  36  CALM    N/A
#LADD CREEK ODOTN/A         69  48  47  SW1     N/A
#LONG CREEK HS  N/A         74  45  35  N7      30.09R
#N POWDER DOT   N/A         72  50  46  N8      N/A
#PIKES PEAK     N/A         72  40  31  CALM    27.99S
#TOLLGATE       N/A         58  42  55  CALM    30.05R
#TROY SCHOOL    N/A         75  45  34  CALM    29.78R
#UKIAH          N/A         67  44  43  CALM    29.88R
#WESTON 4E      N/A         68  41  37  CALM    29.93S
$$

ORZ505-290510-
JOHN DAY BASIN

CITY            SKY/WX      TMP DP  RH  WIND    PRES   REMARKS
JOHN DAY        CLEAR       79  40  25  E9      30.07R
#DAYVILLE SCHOOLN/A         84  41  22  W2      29.96R
#MITCHELL       N/A         79  51  38  CALM    30.22R
#MITCHELL 8NW   N/A         75  44  33  CALM    30.09R
#MT. VERNON 5SE N/A         72  41  33  E1      30.03S
#SPRAY SCHOOL   N/A         81  N/A N/A CALM    N/A
$$

ORZ506-290510-
OCHOCO AND JOHN DAY HIGHLANDS

CITY            SKY/WX      TMP DP  RH  WIND    PRES   REMARKS
#BUCK CREEK DOT N/A         80  37  21  NW1     N/A
#HORSE RIDGE DO N/A         75  43  32  NW16    N/A
#KEYES SMT DOT  N/A         74  43  33  CALM    N/A
#PAULINA SCHOOL N/A         77  30  18  NE1     N/A
#PINE MTN OBS   N/A         65  43  45  N14G24  N/A
#PRAIRIE CITY   N/A         71  47  42  CALM    30.22R
#SENECA         N/A         70  N/A N/A N1      N/A
#SENECA 9NW     N/A         64  38  38  CALM    29.91R
$$

ORZ049-290510-
GRANDE RONDE VALLEY

CITY            SKY/WX      TMP DP  RH  WIND    PRES   REMARKS
LA GRANDE       CLEAR       73  39  29  N10     30.07R
#COVE           N/A         69  52  55  N1      30.09R
#COVE SCHOOL    N/A         69  48  47  CALM    30.07R
#COVE 6NW       N/A         75  45  34  N8      29.93R
#ELGIN 3N       N/A         71  39  31  CALM    30.05R
#ELGIN 1E       N/A         76  45  33  CALM    N/A
#IMBLER SCHOOL  N/A         73  44  35  N3      30.03R
#ISLAND CITY 4N N/A         71  55  57  CALM    29.99R
#LADD CYN DOT   N/A         74  49  41  SE7     N/A
#LA GRANDE ELEM N/A         73  45  37  CALM    30.08R
#UNION 1S       N/A         74  47  38  CALM    29.83R
$$

ORZ050-290510-
WALLOWA COUNTY

CITY            SKY/WX      TMP DP  RH  WIND    PRES   REMARKS
#IMNAHA SCHOOL  N/A         57  41  55  N3      30.20S
#IMNAHA 10S     N/A         73  43  34  SW1     30.06R
#JOSEPH 3W      N/A         64  44  48  SW3     30.03R
#LOSTINE        N/A         64  47  54  CALM    29.76R
#LOSTINE 3SE    N/A         64  43  46  CALM    30.10R
#MT HOWARD 8000 N/A         58  37  45  CALM    30.43R
#PROMISE 1S     N/A         66  42  42  CALM    30.09R
#WALLOWA SCHOOL N/A         68  48  49  CALM    30.05R



$$



USA.gov is the U.S. government's official web portal to all federal, state and local government web resources and services.